When you browse on this site, cookies collect data to enhance your experience and personalize the content and advertising you see.
Visit our Privacy Policy to learn more. By continuing to use the site, you agree to this use of cookies and data.
  • In Austria
  • List of Countries
  • For 7 days
  • Water Temperature
  • Satellite Maps
  • Weather Map
  • News
  • Weather Widgets
  • user-avatar
    Login

    Hourly Weather Ekimovo

    Today, 17 December, Monday

    Time Temperature Precipitation Wind Pressure Humidity
    00:00 -15°C° 0 mm 2 mps 750 mmHg 87%
    01:00 -15°C° 0 mm 2 mps 750 mmHg 89%
    02:00 -15°C° 0 mm 2 mps 750 mmHg 90%
    03:00 -16°C° 0 mm 2 mps 750 mmHg 91%
    04:00 -16°C° 0 mm 2 mps 750 mmHg 91%
    05:00 -16°C° 0 mm 2 mps 750 mmHg 91%
    06:00 -16°C° 0 mm 2 mps 749 mmHg 91%
    07:00 -16°C° 0 mm 2 mps 749 mmHg 90%
    08:00 -16°C° 0 mm 2 mps 749 mmHg 90%
    09:00 -15°C° 0 mm 2 mps 749 mmHg 87%
    10:00 -14°C° 0 mm 2 mps 749 mmHg 85%
    11:00 -14°C° 0 mm 2 mps 749 mmHg 83%
    12:00 -13°C° 0 mm 2 mps 749 mmHg 84%
    13:00 -13°C° 0 mm 2 mps 749 mmHg 84%
    14:00 -13°C° 0 mm 2 mps 749 mmHg 85%
    15:00 -14°C° 0 mm 2 mps 749 mmHg 86%
    16:00 -15°C° 0 mm 2 mps 749 mmHg 88%
    17:00 -15°C° 0 mm 2 mps 749 mmHg 89%
    18:00 -16°C° 0 mm 2 mps 749 mmHg 89%
    19:00 -16°C° 0 mm 2 mps 749 mmHg 89%
    20:00 -16°C° 0 mm 2 mps 749 mmHg 89%
    21:00 -16°C° 0 mm 2 mps 749 mmHg 89%
    22:00 -16°C° 0 mm 2 mps 749 mmHg 89%
    23:00 -17°C° 0 mm 2 mps 749 mmHg 89%

    Tomorrow, 18 December, Tuesday

    Time Temperature Precipitation Wind Pressure Humidity
    00:00 -17°C° 0 mm 2 mps 749 mmHg 90%
    01:00 -17°C° 0 mm 2 mps 749 mmHg 90%
    02:00 -17°C° 0 mm 2 mps 749 mmHg 90%
    03:00 -17°C° 0 mm 2 mps 749 mmHg 91%
    04:00 -17°C° 0 mm 2 mps 748 mmHg 92%
    05:00 -17°C° 0 mm 2 mps 748 mmHg 93%
    06:00 -17°C° 0 mm 2 mps 748 mmHg 93%
    07:00 -17°C° 0 mm 2 mps 748 mmHg 94%
    08:00 -17°C° 0 mm 2 mps 748 mmHg 94%
    09:00 -17°C° 0 mm 2 mps 749 mmHg 93%
    10:00 -16°C° 0 mm 2 mps 749 mmHg 92%
    11:00 -16°C° 0 mm 3 mps 749 mmHg 91%
    12:00 -15°C° 0 mm 2 mps 749 mmHg 91%
    13:00 -15°C° 0 mm 2 mps 749 mmHg 91%
    14:00 -14°C° 0 mm 2 mps 748 mmHg 92%
    15:00 -15°C° 0 mm 2 mps 748 mmHg 93%
    16:00 -15°C° 0 mm 2 mps 748 mmHg 95%
    17:00 -16°C° 0 mm 2 mps 748 mmHg 96%
    18:00 -16°C° 0 mm 2 mps 748 mmHg 96%
    19:00 -16°C° 0 mm 2 mps 749 mmHg 96%
    20:00 -16°C° 0 mm 2 mps 749 mmHg 96%
    21:00 -15°C° 0 mm 2 mps 749 mmHg 96%
    22:00 -15°C° 0 mm 2 mps 749 mmHg 96%
    23:00 -15°C° 0 mm 2 mps 749 mmHg 96%

    Day after tomorrow, 19 December, Wednesday

    Time Temperature Precipitation Wind Pressure Humidity
    00:00 -15°C° 0 mm 2 mps 749 mmHg 96%
    01:00 -15°C° 0 mm 2 mps 749 mmHg 96%
    02:00 -13°C° 0 mm 1 mps 749 mmHg 96%
    03:00 -13°C° 0 mm 1 mps 749 mmHg 96%
    04:00 -13°C° 0 mm 1 mps 749 mmHg 96%
    05:00 -13°C° 0 mm 1 mps 749 mmHg 96%
    06:00 -15°C° 0 mm 2 mps 749 mmHg 96%
    07:00 -15°C° 0 mm 2 mps 749 mmHg 96%
    08:00 -15°C° 0 mm 2 mps 749 mmHg 96%
    09:00 -14°C° 0 mm 2 mps 749 mmHg 94%
    10:00 -13°C° 0 mm 2 mps 750 mmHg 93%
    11:00 -13°C° 0 mm 2 mps 750 mmHg 91%
    12:00 -13°C° 0 mm 2 mps 750 mmHg 91%
    13:00 -10°C° 0 mm 1 mps 750 mmHg 91%
    14:00 -10°C° 0 mm 1 mps 749 mmHg 92%
    15:00 -11°C° 0 mm 1 mps 749 mmHg 93%
    16:00 -12°C° 0 mm 1 mps 749 mmHg 95%
    17:00 -12°C° 0 mm 1 mps 749 mmHg 96%
    18:00 -13°C° 0 mm 1 mps 749 mmHg 96%
    19:00 -13°C° 0 mm 1 mps 750 mmHg 96%
    20:00 -13°C° 0 mm 1 mps 750 mmHg 96%
    21:00 -13°C° 0 mm 1 mps 750 mmHg 96%
    22:00 -12°C° 0 mm 1 mps 750 mmHg 96%
    23:00 -12°C° 0 mm 1 mps 750 mmHg 96%

    20 December, Thursday

    Time Temperature Precipitation Wind Pressure Humidity
    00:00 -12°C° 0 mm 1 mps 750 mmHg 96%
    01:00 -12°C° 0 mm 1 mps 750 mmHg 96%
    02:00 -12°C° 0 mm 1 mps 750 mmHg 96%
    03:00 -12°C° 0 mm 1 mps 750 mmHg 96%
    04:00 -12°C° 0 mm 1 mps 750 mmHg 96%
    05:00 -13°C° 0 mm 1 mps 750 mmHg 96%
    06:00 -13°C° 0 mm 1 mps 750 mmHg 96%
    07:00 -13°C° 0 mm 1 mps 750 mmHg 96%
    08:00 -13°C° 0 mm 1 mps 750 mmHg 96%
    09:00 -12°C° 0 mm 1 mps 750 mmHg 95%
    10:00 -12°C° 0 mm 1 mps 750 mmHg 93%
    11:00 -11°C° 0 mm 1 mps 750 mmHg 92%
    12:00 -11°C° 0 mm 1 mps 750 mmHg 92%
    13:00 -11°C° 0 mm 1 mps 749 mmHg 91%
    14:00 -11°C° 0 mm 1 mps 749 mmHg 91%
    15:00 -12°C° 0 mm 1 mps 749 mmHg 93%
    16:00 -12°C° 0 mm 1 mps 749 mmHg 94%
    17:00 -13°C° 0 mm 1 mps 749 mmHg 96%
    18:00 -13°C° 0 mm 1 mps 749 mmHg 96%
    19:00 -13°C° 0 mm 1 mps 749 mmHg 96%
    20:00 -13°C° 0 mm 1 mps 748 mmHg 96%
    21:00 -13°C° 0 mm 1 mps 748 mmHg 96%
    22:00 -13°C° 0 mm 1 mps 748 mmHg 96%
    23:00 -13°C° 0 mm 1 mps 748 mmHg 96%

    21 December, Friday

    Time Temperature Precipitation Wind Pressure Humidity
    00:00 -13°C° 0 mm 0 mps 748 mmHg 96%
    01:00 -13°C° 0 mm 0 mps 748 mmHg 96%
    02:00 -14°C° 0 mm 0 mps 748 mmHg 96%
    03:00 -14°C° 0 mm 0 mps 748 mmHg 96%
    04:00 -14°C° 0 mm 0 mps 748 mmHg 96%
    05:00 -14°C° 0 mm 0 mps 747 mmHg 96%
    06:00 -14°C° 0 mm 0 mps 747 mmHg 97%
    07:00 -14°C° 0 mm 0 mps 748 mmHg 97%
    08:00 -14°C° 0 mm 0 mps 748 mmHg 97%
    09:00 -14°C° 0 mm 0 mps 748 mmHg 95%
    10:00 -13°C° 0 mm 0 mps 748 mmHg 93%
    11:00 -12°C° 0 mm 0 mps 748 mmHg 92%
    12:00 -12°C° 0 mm 0 mps 748 mmHg 92%
    13:00 -11°C° 0 mm 0 mps 748 mmHg 92%
    14:00 -11°C° 0 mm 0 mps 748 mmHg 92%
    15:00 -12°C° 0 mm 1 mps 748 mmHg 93%
    16:00 -12°C° 0 mm 1 mps 747 mmHg 95%
    17:00 -12°C° 0 mm 1 mps 747 mmHg 96%
    18:00 -13°C° 0 mm 1 mps 747 mmHg 96%
    19:00 -13°C° 0 mm 1 mps 747 mmHg 97%
    20:00 -13°C° 0 mm 1 mps 747 mmHg 97%
    21:00 -13°C° 0 mm 1 mps 747 mmHg 97%
    22:00 -13°C° 0 mm 1 mps 747 mmHg 97%
    23:00 -13°C° 0 mm 1 mps 748 mmHg 97%

    22 December, Saturday

    Time Temperature Precipitation Wind Pressure Humidity
    00:00 -13°C° 0 mm 1 mps 748 mmHg 96%
    01:00 -12°C° 0 mm 1 mps 748 mmHg 96%
    02:00 -12°C° 0 mm 0 mps 748 mmHg 96%
    03:00 -12°C° 0 mm 1 mps 748 mmHg 96%
    04:00 -12°C° 0 mm 1 mps 748 mmHg 96%
    05:00 -12°C° 0 mm 1 mps 747 mmHg 96%
    06:00 -12°C° 0 mm 1 mps 748 mmHg 97%
    07:00 -12°C° 0 mm 1 mps 748 mmHg 97%
    08:00 -12°C° 0 mm 1 mps 748 mmHg 97%
    09:00 -13°C° 0 mm 2 mps 749 mmHg 95%
    10:00 -12°C° 0 mm 2 mps 749 mmHg 93%
    11:00 -12°C° 0 mm 3 mps 749 mmHg 91%
    12:00 -12°C° 0 mm 3 mps 749 mmHg 90%
    13:00 -12°C° 0 mm 3 mps 750 mmHg 90%
    14:00 -12°C° 0 mm 3 mps 750 mmHg 89%
    15:00 -12°C° 0 mm 3 mps 750 mmHg 90%
    16:00 -13°C° 0 mm 3 mps 751 mmHg 91%
    17:00 -14°C° 0 mm 3 mps 751 mmHg 92%
    18:00 -14°C° 0 mm 3 mps 751 mmHg 92%
    19:00 -15°C° 0 mm 3 mps 752 mmHg 93%
    20:00 -16°C° 0 mm 3 mps 752 mmHg 93%
    21:00 -17°C° 0 mm 3 mps 752 mmHg 94%
    22:00 -18°C° 0 mm 3 mps 753 mmHg 94%
    23:00 -18°C° 0 mm 2 mps 753 mmHg 95%
    Show more